This is the latest recevied weather packets stored in our database for station/object OK1JIL-13. If no packets are shown the sender has not sent any weather packets the latest 10 day(s).
| Time | Temp. | Humidity | Pressure | Rain* | Wind** | Luminosity | Snow |
|---|---|---|---|---|---|---|---|
| 1777488792 | 1.67° C | 39% | 1027.5 hPa | - | - | - | - |
| 1777487591 | 1.67° C | 38% | 1027.1 hPa | - | - | - | - |
| 1777486992 | 1.67° C | 38% | 1027.1 hPa | - | - | - | - |
| 1777485792 | 2.22° C | 37% | 1027 hPa | - | - | - | - |
| 1777483992 | 2.22° C | 36% | 1026.7 hPa | - | - | - | - |
| 1777483392 | 2.22° C | 37% | 1026.7 hPa | - | - | - | - |
| 1777481592 | 2.78° C | 34% | 1026.3 hPa | - | - | - | - |
| 1777480392 | 3.33° C | 35% | 1026.4 hPa | - | - | - | - |
| 1777479791 | 2.78° C | 35% | 1026.4 hPa | - | - | - | - |
| 1777476792 | 3.33° C | 34% | 1026 hPa | - | - | - | - |
| 1777475592 | 4.44° C | 30% | 1026.1 hPa | - | - | - | - |
| 1777474992 | 3.89° C | 31% | 1026 hPa | - | - | - | - |
| 1777473192 | 5° C | 29% | 1026.1 hPa | - | - | - | - |
| 1777472592 | 5° C | 27% | 1025.9 hPa | - | - | - | - |
| 1777471992 | 5.56° C | 27% | 1026.1 hPa | - | - | - | - |
| 1777469592 | 5° C | 28% | 1026 hPa | - | - | - | - |
| 1777468991 | 5.56° C | 30% | 1025.9 hPa | - | - | - | - |
| 1777468391 | 5.56° C | 31% | 1025.7 hPa | - | - | - | - |
| 1777467792 | 6.67° C | 30% | 1025.7 hPa | - | - | - | - |
| 1777466592 | 5.56° C | 30% | 1025.8 hPa | - | - | - | - |
| 1777465391 | 5° C | 31% | 1025.6 hPa | - | - | - | - |
| 1777464792 | 5.56° C | 30% | 1025.6 hPa | - | - | - | - |
| 1777464192 | 6.11° C | 31% | 1025.6 hPa | - | - | - | - |
| 1777463592 | 6.11° C | 31% | 1025.5 hPa | - | - | - | - |
| 1777462391 | 5.56° C | 30% | 1025.4 hPa | - | - | - | - |
* Rain since midnight (hover to see other rain measurements)
** Current wind speed in m/s (hover to see current wind gust speed)